Hourly Data Report for September 19, 2017

All times are specified in Local Standard Time (LST). Add 1 hour to adjust for Daylight Saving Time where and when it is observed.

BUCTOUCHE CDA CS
NEW BRUNSWICK

46°25'49.006" N
64°46'05.009" W
35.90 m
8100593
71666
ABT

Download Data

Hourly Data (September 2017)
Hourly Data Report for September 19, 2017
Temp Definition
°C
Dew Point Temp Definition
°C
Rel Hum Definition
%
Wind Dir Definition
10's deg

Wind Spd Definition
km/h
Visibility Definition
km
Stn Press Definition
kPa
Hmdx Definition


Wind Chill Definition


Weather Definition


TIME
00:00 16.7 15.7 94 17 5   101.94     LegendNANA
01:00 16.8 15.7 93 17 6   101.96     LegendNANA
02:00 16.9 15.8 93 17 6   101.93     LegendNANA
03:00 16.9 15.5 92 16 8   101.88     LegendNANA
04:00 16.8 15.4 92 18 4   101.90     LegendNANA
05:00 16.4 15.4 94 16 9   101.92     LegendNANA
06:00 16.2 15.3 94 18 3   101.96     LegendNANA
07:00 16.4 15.4 94 15 7   101.97     LegendNANA
08:00 16.7 15.7 94 14 4   101.97     LegendNANA
09:00 18.0 16.3 90 16 7   101.95     LegendNANA
10:00 19.1 16.4 84 20 3   101.95     LegendNANA
11:00 20.1 16.5 80 29 3   101.91 25   LegendNANA
12:00 20.6 16.2 76 15 8   101.87 25   LegendNANA
13:00 21.5 16.5 73 15 11   101.81 26   LegendNANA
14:00 20.6 16.2 76 15 13   101.77 25   LegendNANA
15:00 20.8 16.8 78 15 9   101.70 26   LegendNANA
16:00 21.5 17.1 76 15 8   101.65 27   LegendNANA
17:00 21.0 17.4 80 14 6   101.64 27   LegendNANA
18:00 20.0 17.5 85 12 6   101.63 26   LegendNANA
19:00 19.1 17.3 89 11 3   101.62     LegendNANA
20:00 18.3 17.0 92 11 5   101.63     LegendNANA
21:00 18.9 17.6 93 15 9   101.60     LegendNANA
22:00 18.9 17.6 93 18 3   101.58     LegendNANA
23:00 19.0 17.8 93 16 6   101.56     LegendNANA

Notes on Data Quality.

Legend

  • E = Estimated
  • M = Missing
  • NA = Not Available
  • ‡ = Partner data that is not subject to review by the National Climate Archives
Date modified: